Location: Buckeye Ditch
(40.9104°N, 122.9517°W)
Time: 12:17:40
(UTC+00:00)

Transit 2A Rocket - Pass Details

Date: 21 May 2025
Orbit: 590 x 896 km, 66.7° (Epoch: 15 June)

Event Time Altitude Azimuth Distance (km) Brightness Sun altitude
Rises 04:09:15 0° 328° (NNW) 2,937 9.5 -7.5°
Reaches altitude 10° 04:11:27 10° 327° (NNW) 2,061 8.5 -7.8°
Maximum altitude 04:16:06 75° 242° (WSW) 717 5.0 -8.5°
Drops below altitude 10° 04:21:10 10° 158° (SSE) 2,236 6.9 -9.3°
Enters shadow 04:21:41 - 158° (SSE) 2,439 7.1 -9.4°
